sat.trackr.live / text

‹ back to catalog

STARLINK-11682 [DTC]

NORAD 64234 · 2025-119B

PAYLOAD ACTIVE UNKNOWN

§ Identity

Operator
Country
US
Launch date
2025-06-03
Launch site
AFETR
Launch vehicle
Mass (kg)
RCS (m²)

Purposes: comms

External: N2YO · Heavens-Above · Gunter

§ Orbital elements

Epoch: 2026-05-24T22:55:42.437856Z

Period
91.67 min
Inclination
42.9995°
Eccentricity
0.0002195
Mean motion
15.70935428 rev/d
Perigee alt
354.7 km
Apogee alt
357.7 km
Semi-major
6,734.4 km
B*
1.3357e-3
RAAN
109.9239°
Arg perigee
262.3962°
Mean anomaly
97.6656°
Rev number
5,723

§ Raw data

STARLINK-11682 [DTC]1 64234U 25119B   26144.95535229  .00175307  00000+0  13357-2 0  99972 64234  42.9995 109.9239 0002195 262.3962  97.6656 15.70935428 57239

JSON: /api/v1/satellites/64234 · /tle

For live sub-satellite position, see the globe view (requires WebGL).

§ Visibility from observer

Set your observer location to see the next 7 days of passes ≥ 10°. The values pass through the URL so the page stays shareable.

No JS? Fill the form by hand. The geolocation button needs JavaScript.